Tracking 31027 objects as of 19-Jul-2025
HD Live streaming from Space Station
objects crossing your sky now

STARLINK-2191

Track STARLINK-2191 now!
10-day predictions
STARLINK-2191 is classified as:


NORAD ID: 48565
Int'l Code: 2021-041N
Perigee: 275.8 km
Apogee: 285.2 km
Inclination: 53.0 °
Period: 90.0 minutes
Semi major axis: 6651 km
RCS: Unknown
Launch date: May 15, 2021
Source: United States (US)
Launch site: AIR FORCE EASTERN TEST RANGE (AFETR)
Your satellite tracking list
IRIDIUM 106
Track 1 satellite(s)




NASA's NSSDC Master Catalog

Two Line Element Set (TLE):
1 48565U 21041N   25199.33335648  .00589334  16568-3  11014-2 0  9997
2 48565  53.0290  10.7604 0007054 287.2932 149.2764 16.00380323  5875
Source of the keplerian elements: AFSPC